When you browse on this site, cookies collect data to enhance your experience and personalize the content and advertising you see.
Visit our Privacy Policy to learn more. By continuing to use the site, you agree to this use of cookies and data.
  • In Italy
  • List of Countries
  • For 7 days
  • Water Temperature
  • Satellite Maps
  • Weather Map
  • Weather Widgets
  • user-avatar
    Login

    Hourly Weather Sagaleipie

    Today, 11 December, Tuesday

    Time Temperature Precipitation Wind Pressure Humidity
    00:00 +20°C° 0 mm 0 mps 724 mmHg 60%
    01:00 +20°C° 0 mm 0 mps 724 mmHg 65%
    02:00 +19°C° 0 mm 0 mps 724 mmHg 69%
    03:00 +19°C° 0 mm 0 mps 724 mmHg 72%
    04:00 +19°C° 0 mm 0 mps 724 mmHg 74%
    05:00 +18°C° 0 mm 0 mps 724 mmHg 73%
    06:00 +21°C° 0 mm 0 mps 724 mmHg 67%
    07:00 +23°C° 0 mm 0 mps 725 mmHg 60%
    08:00 +25°C° 0 mm 0 mps 725 mmHg 54%
    09:00 +28°C° 0 mm 0 mps 725 mmHg 45%
    10:00 +31°C° 0 mm 0 mps 725 mmHg 35%
    11:00 +33°C° 0 mm 0 mps 725 mmHg 28%
    12:00 +34°C° 0 mm 0 mps 724 mmHg 26%
    13:00 +36°C° 0 mm 1 mps 724 mmHg 25%
    14:00 +36°C° 0 mm 1 mps 723 mmHg 23%
    15:00 +32°C° 0 mm 0 mps 723 mmHg 28%
    16:00 +29°C° 0 mm 0 mps 723 mmHg 34%
    17:00 +27°C° 0 mm 0 mps 722 mmHg 40%
    18:00 +26°C° 0 mm 0 mps 723 mmHg 42%
    19:00 +24°C° 0 mm 0 mps 723 mmHg 44%
    20:00 +23°C° 0 mm 0 mps 724 mmHg 46%
    21:00 +23°C° 0 mm 0 mps 724 mmHg 49%
    22:00 +22°C° 0 mm 0 mps 724 mmHg 53%
    23:00 +21°C° 0 mm 0 mps 724 mmHg 57%

    Tomorrow, 12 December, Wednesday

    Time Temperature Precipitation Wind Pressure Humidity
    00:00 +21°C° 0 mm 0 mps 724 mmHg 64%
    01:00 +21°C° 0 mm 0 mps 723 mmHg 71%
    02:00 +20°C° 0 mm 0 mps 723 mmHg 78%
    03:00 +20°C° 0 mm 0 mps 723 mmHg 84%
    04:00 +20°C° 0 mm 0 mps 724 mmHg 89%
    05:00 +20°C° 0 mm 0 mps 724 mmHg 94%
    06:00 +21°C° 0 mm 0 mps 724 mmHg 87%
    07:00 +25°C° 0 mm 1 mps 725 mmHg 79%
    08:00 +27°C° 0 mm 1 mps 725 mmHg 71%
    09:00 +30°C° 0 mm 1 mps 725 mmHg 61%
    10:00 +32°C° 0 mm 1 mps 725 mmHg 52%
    11:00 +34°C° 0 mm 1 mps 725 mmHg 42%
    12:00 +34°C° 0 mm 1 mps 724 mmHg 41%
    13:00 +34°C° 0 mm 1 mps 723 mmHg 40%
    14:00 +34°C° 0 mm 1 mps 723 mmHg 39%
    15:00 +32°C° 0 mm 1 mps 723 mmHg 44%
    16:00 +31°C° 0 mm 1 mps 723 mmHg 50%
    17:00 +28°C° 0 mm 0 mps 723 mmHg 55%
    18:00 +28°C° 0.6 mm 1 mps 723 mmHg 63%
    19:00 +26°C° 0.6 mm 1 mps 724 mmHg 71%
    20:00 +25°C° 0.6 mm 1 mps 724 mmHg 79%
    21:00 +24°C° 0.4 mm 1 mps 724 mmHg 84%
    22:00 +22°C° 0.4 mm 0 mps 724 mmHg 88%
    23:00 +21°C° 0.4 mm 0 mps 724 mmHg 93%

    Day after tomorrow, 13 December, Thursday

    Time Temperature Precipitation Wind Pressure Humidity
    00:00 +21°C° 0.1 mm 0 mps 724 mmHg 94%
    01:00 +21°C° 0.1 mm 0 mps 724 mmHg 96%
    02:00 +20°C° 0.1 mm 0 mps 723 mmHg 97%
    03:00 +20°C° 0.2 mm 0 mps 724 mmHg 98%
    04:00 +20°C° 0.2 mm 0 mps 724 mmHg 98%
    05:00 +20°C° 0.2 mm 0 mps 724 mmHg 99%
    06:00 +22°C° 0.2 mm 0 mps 724 mmHg 92%
    07:00 +23°C° 0.2 mm 0 mps 725 mmHg 85%
    08:00 +25°C° 0.2 mm 0 mps 725 mmHg 79%
    09:00 +27°C° 0.9 mm 0 mps 725 mmHg 69%
    10:00 +31°C° 0.9 mm 1 mps 725 mmHg 60%
    11:00 +33°C° 0.9 mm 1 mps 725 mmHg 50%
    12:00 +33°C° 0 mm 1 mps 724 mmHg 45%
    13:00 +34°C° 0 mm 1 mps 723 mmHg 40%
    14:00 +35°C° 0 mm 1 mps 723 mmHg 36%
    15:00 +33°C° 0 mm 1 mps 723 mmHg 41%
    16:00 +32°C° 0 mm 1 mps 723 mmHg 46%
    17:00 +28°C° 0 mm 0 mps 723 mmHg 52%
    18:00 +27°C° 0 mm 0 mps 723 mmHg 55%
    19:00 +26°C° 0 mm 0 mps 724 mmHg 59%
    20:00 +25°C° 0 mm 0 mps 725 mmHg 62%
    21:00 +24°C° 0.4 mm 0 mps 725 mmHg 69%
    22:00 +25°C° 0.4 mm 1 mps 725 mmHg 76%
    23:00 +24°C° 0.4 mm 1 mps 724 mmHg 82%

    14 December, Friday

    Time Temperature Precipitation Wind Pressure Humidity
    00:00 +24°C° 0.6 mm 1 mps 724 mmHg 87%
    01:00 +21°C° 0.6 mm 0 mps 724 mmHg 91%
    02:00 +21°C° 0.6 mm 0 mps 723 mmHg 95%
    03:00 +21°C° 0.8 mm 0 mps 723 mmHg 96%
    04:00 +21°C° 0.8 mm 0 mps 724 mmHg 97%
    05:00 +21°C° 0.8 mm 0 mps 724 mmHg 97%
    06:00 +22°C° 0.1 mm 0 mps 724 mmHg 92%
    07:00 +23°C° 0.1 mm 0 mps 725 mmHg 87%
    08:00 +25°C° 0.1 mm 0 mps 726 mmHg 82%
    09:00 +29°C° 0 mm 1 mps 725 mmHg 69%
    10:00 +31°C° 0 mm 1 mps 725 mmHg 56%
    11:00 +34°C° 0 mm 2 mps 725 mmHg 43%
    12:00 +35°C° 0 mm 2 mps 724 mmHg 38%
    13:00 +36°C° 0 mm 2 mps 723 mmHg 34%
    14:00 +36°C° 0 mm 2 mps 723 mmHg 30%
    15:00 +33°C° 0 mm 1 mps 723 mmHg 35%
    16:00 +32°C° 0 mm 1 mps 723 mmHg 39%
    17:00 +30°C° 0 mm 1 mps 723 mmHg 44%
    18:00 +28°C° 0 mm 1 mps 723 mmHg 45%
    19:00 +25°C° 0 mm 0 mps 724 mmHg 47%
    20:00 +24°C° 0 mm 0 mps 725 mmHg 48%
    21:00 +23°C° 0 mm 0 mps 724 mmHg 53%
    22:00 +22°C° 0 mm 0 mps 724 mmHg 57%
    23:00 +22°C° 0 mm 0 mps 724 mmHg 62%

    15 December, Saturday

    Time Temperature Precipitation Wind Pressure Humidity
    00:00 +21°C° 0 mm 0 mps 724 mmHg 69%
    01:00 +21°C° 0 mm 0 mps 724 mmHg 77%
    02:00 +20°C° 0 mm 0 mps 723 mmHg 84%
    03:00 +20°C° 0 mm 0 mps 724 mmHg 86%
    04:00 +21°C° 0 mm 0 mps 724 mmHg 88%
    05:00 +23°C° 0 mm 1 mps 724 mmHg 91%
    06:00 +24°C° 0 mm 1 mps 725 mmHg 83%
    07:00 +24°C° 0 mm 0 mps 726 mmHg 76%
    08:00 +26°C° 0 mm 0 mps 726 mmHg 69%
    09:00 +30°C° 0 mm 1 mps 726 mmHg 55%
    10:00 +32°C° 0 mm 1 mps 726 mmHg 41%
    11:00 +35°C° 0 mm 2 mps 725 mmHg 26%
    12:00 +36°C° 0 mm 2 mps 724 mmHg 23%
    13:00 +36°C° 0 mm 2 mps 724 mmHg 20%
    14:00 +37°C° 0 mm 2 mps 723 mmHg 17%
    15:00 +35°C° 0 mm 2 mps 723 mmHg 22%
    16:00 +31°C° 0 mm 1 mps 723 mmHg 27%
    17:00 +29°C° 0 mm 1 mps 723 mmHg 32%
    18:00 +26°C° 0 mm 0 mps 723 mmHg 34%
    19:00 +24°C° 0 mm 0 mps 724 mmHg 35%
    20:00 +23°C° 0 mm 0 mps 724 mmHg 36%
    21:00 +22°C° 0 mm 0 mps 724 mmHg 38%
    22:00 +21°C° 0 mm 0 mps 724 mmHg 40%
    23:00 +21°C° 0 mm 0 mps 724 mmHg 42%

    16 December, Sunday

    Time Temperature Precipitation Wind Pressure Humidity
    00:00 +20°C° 0 mm 0 mps 724 mmHg 49%
    01:00 +20°C° 0 mm 0 mps 723 mmHg 56%
    02:00 +19°C° 0 mm 0 mps 723 mmHg 62%
    03:00 +19°C° 0 mm 0 mps 723 mmHg 68%
    04:00 +19°C° 0 mm 0 mps 724 mmHg 73%
    05:00 +19°C° 0 mm 0 mps 724 mmHg 79%
    06:00 +21°C° 0 mm 0 mps 724 mmHg 75%
    07:00 +23°C° 0 mm 0 mps 725 mmHg 72%
    08:00 +27°C° 0 mm 1 mps 726 mmHg 68%
    09:00 +30°C° 0 mm 1 mps 725 mmHg 56%
    10:00 +32°C° 0 mm 1 mps 725 mmHg 44%
    11:00 +35°C° 0 mm 1 mps 725 mmHg 31%
    12:00 +35°C° 0 mm 1 mps 724 mmHg 28%
    13:00 +36°C° 0 mm 1 mps 723 mmHg 25%
    14:00 +36°C° 0 mm 1 mps 723 mmHg 22%
    15:00 +34°C° 0 mm 1 mps 723 mmHg 27%
    16:00 +30°C° 0 mm 0 mps 723 mmHg 32%
    17:00 +27°C° 0 mm 0 mps 723 mmHg 36%
    18:00 +26°C° 0 mm 0 mps 723 mmHg 38%
    19:00 +25°C° 0 mm 0 mps 724 mmHg 39%
    20:00 +23°C° 0 mm 0 mps 724 mmHg 40%
    21:00 +22°C° 0 mm 0 mps 724 mmHg 43%
    22:00 +22°C° 0 mm 0 mps 724 mmHg 46%
    23:00 +21°C° 0 mm 0 mps 724 mmHg 49%
    Show more